Weather History for KVWU - May, 2009

Change the Weather History Date:

Wednesday, May 13, 2009

  Actual Average (KBDE) Record (KBDE)
Temperature  
Mean Temperature 52 °F -  
Max Temperature 62 °F 65 °F 88 °F (1932)
Min Temperature 39 °F 39 °F 25 °F (1945)
Degree Days  
Heating Degree Days 14    
Growing Degree Days 2 (Base 50)    
Moisture  
Dew Point 49 °F    
Average Humidity 77    
Maximum Humidity 100    
Minimum Humidity 59    
Precipitation  
Precipitation 0.12 in - - ()
Sea Level Pressure  
Sea Level Pressure 29.39 in    
Wind  
Wind Speed 15 mph (SW)    
Max Wind Speed 29 mph    
Max Gust Speed 37 mph    
Visibility 10 miles    
Events Rain , Thunderstorm    
Averages and records for this station are not official NWS values.
T = Trace of Precipitation, MM = Missing Value Source: NWS Daily Summary

Daily Weather History Graph

Daily Weather History Graph

Search for Another Location

Airport or City:

Trip Planner

Search our weather history database for the weather conditions in past years. The results will help you decide how hot, cold, wet, or windy it might be!

Date:

Astronomy

May. 13, 2009 Rise Set
Actual Time 5:41 AM CDT 8:48 PM CDT
Civil Twilight 5:04 AM CDT 9:25 PM CDT
Nautical Twilight 4:16 AM CDT 10:13 PM CDT
Astronomical Twilight 3:16 AM CDT 11:14 PM CDT
Moon 12:37 AM CDT (5/13) 8:42 AM CDT (5/13)
Length of Visible Light 16h 21m
Length of Day
15h 07m
Waning Gibbous, 82% of the Moon is Illuminated
May 13
Waning Gibbous
May 17
Last Quarter
May 24
New
May 30
First Quarter
Jun 7
Full

Hourly Weather History & Observations

Time (CDT) Temp. Windchill Dew Point Humidity Pressure Visibility Wind Dir Wind Speed Gust Speed Precip Events Conditions
12:04 AM 55.4 °F - 51.8 °F 88% 29.48 in 10.0 mi SSE 6.9 mph - N/A Rain Rain
12:25 AM 55.4 °F - 51.8 °F 88% 29.46 in 10.0 mi SSE 9.2 mph - N/A   Overcast
12:44 AM 55.4 °F - 51.8 °F 88% 29.45 in 10.0 mi SSE 8.1 mph - N/A   Overcast
1:04 AM 55.4 °F - 51.8 °F 88% - 10.0 mi SSE 8.1 mph 18.4 mph N/A   Mostly Cloudy
1:25 AM 55.4 °F - 53.6 °F 94% 29.43 in 10.0 mi SSE 12.7 mph 20.7 mph N/A   Mostly Cloudy
1:44 AM 55.4 °F - 53.6 °F 94% 29.42 in 10.0 mi SSE 11.5 mph 18.4 mph N/A   Overcast
2:04 AM 55.4 °F - 53.6 °F 94% 29.42 in 10.0 mi South 10.4 mph 18.4 mph N/A Rain Light Rain
2:24 AM 55.4 °F - 53.6 °F 94% 29.41 in 10.0 mi SSE 10.4 mph 21.9 mph N/A Rain Light Rain
2:45 AM 55.4 °F - 53.6 °F 94% 29.40 in 10.0 mi SSE 11.5 mph 19.6 mph 0.01 in Rain Rain
3:04 AM 55.4 °F - 53.6 °F 94% 29.36 in 10.0 mi SSE 12.7 mph 21.9 mph 0.01 in Rain Light Rain
3:24 AM 55.4 °F - 53.6 °F 94% 29.33 in 10.0 mi SSE 17.3 mph 27.6 mph 0.03 in Rain Light Rain
3:44 AM 55.4 °F - 53.6 °F 94% 29.32 in 10.0 mi SSE 12.7 mph 26.5 mph 0.04 in Rain Light Rain
4:04 AM 55.4 °F - 53.6 °F 94% 29.27 in 10.0 mi SE 16.1 mph 31.1 mph N/A Rain Light Rain
4:24 AM 55.4 °F - 53.6 °F 94% 29.29 in 10.0 mi SSE 11.5 mph 19.6 mph N/A Rain Light Rain
4:44 AM 55.4 °F - 55.4 °F 100% 29.30 in 10.0 mi SSE 13.8 mph 23.0 mph N/A   Overcast
5:04 AM 55.4 °F - 55.4 °F 100% 29.29 in 10.0 mi SSE 15.0 mph 24.2 mph N/A   Overcast
5:24 AM 55.4 °F - 55.4 °F 100% 29.28 in 7.0 mi SSE 16.1 mph 24.2 mph 0.02 in Rain Heavy Rain
5:44 AM 55.4 °F - 55.4 °F 100% 29.28 in 10.0 mi South 13.8 mph 23.0 mph 0.03 in Rain Light Rain
6:24 AM 57.2 °F - 55.4 °F 94% 29.27 in 10.0 mi South 13.8 mph 26.5 mph N/A   Overcast
6:44 AM 55.4 °F - 53.6 °F 94% 29.30 in 7.0 mi SW 23.0 mph 26.5 mph N/A Rain Light Rain
7:24 AM 53.6 °F - 50.0 °F 88% 29.32 in 10.0 mi SSW 13.8 mph 25.3 mph N/A   Scattered Clouds
7:44 AM 53.6 °F - 48.2 °F 82% 29.33 in 10.0 mi SW 20.7 mph 27.6 mph 0.01 in   Scattered Clouds
8:04 AM 53.6 °F - 46.4 °F 77% - 10.0 mi SSW 20.7 mph 31.1 mph N/A   Scattered Clouds
8:24 AM 55.4 °F - 46.4 °F 72% 29.33 in 10.0 mi SSW 20.7 mph 27.6 mph N/A   Clear
8:44 AM 55.4 °F - 46.4 °F 72% 29.33 in 10.0 mi SW 20.7 mph 32.2 mph N/A   Clear
9:05 AM 55.4 °F - 46.4 °F 72% 29.33 in 10.0 mi SW 19.6 mph 27.6 mph N/A   Clear
9:24 AM 57.2 °F - 46.4 °F 67% 29.33 in 10.0 mi SSW 18.4 mph 25.3 mph N/A   Clear
9:44 AM 59.0 °F - 48.2 °F 67% 29.32 in 10.0 mi SSW 15.0 mph 26.5 mph N/A   Clear
10:04 AM 59.0 °F - 46.4 °F 63% 29.32 in 10.0 mi SSW 21.9 mph 35.7 mph N/A   Mostly Cloudy
10:25 AM 60.8 °F - 46.4 °F 59% 29.33 in 10.0 mi SSW 21.9 mph 29.9 mph N/A   Scattered Clouds
10:44 AM 60.8 °F - 46.4 °F 59% 29.34 in 10.0 mi SW 28.8 mph 36.8 mph N/A   Clear
11:04 AM 60.8 °F - 48.2 °F 63% 29.35 in 10.0 mi SW 23.0 mph 32.2 mph N/A   Clear
11:24 AM 60.8 °F - 50.0 °F 68% 29.36 in 10.0 mi SW 23.0 mph 28.8 mph N/A   Clear
11:44 AM 60.8 °F - 50.0 °F 68% 29.36 in 10.0 mi SW 23.0 mph 29.9 mph N/A   Clear
12:04 PM 60.8 °F - 48.2 °F 63% 29.36 in 10.0 mi SW 23.0 mph 31.1 mph N/A   Clear
12:24 PM 60.8 °F - 50.0 °F 68% 29.36 in 10.0 mi SW 20.7 mph 31.1 mph N/A   Clear
12:44 PM 60.8 °F - 48.2 °F 63% 29.36 in 10.0 mi SW 24.2 mph 31.1 mph N/A   Scattered Clouds
1:04 PM 60.8 °F - 48.2 °F 63% 29.36 in 10.0 mi SW 21.9 mph 29.9 mph N/A   Scattered Clouds
1:24 PM 60.8 °F - 48.2 °F 63% 29.37 in 10.0 mi SW 23.0 mph 31.1 mph N/A   Scattered Clouds
1:44 PM 60.8 °F - 48.2 °F 63% 29.38 in 10.0 mi WSW 18.4 mph 27.6 mph N/A   Scattered Clouds
2:04 PM 60.8 °F - 50.0 °F 68% 29.38 in 10.0 mi SW 17.3 mph 23.0 mph N/A   Scattered Clouds
2:24 PM 62.6 °F - 48.2 °F 59% 29.38 in 10.0 mi WSW 18.4 mph 26.5 mph N/A   Clear
2:44 PM 62.6 °F - 50.0 °F 63% 29.38 in 10.0 mi SW 18.4 mph 26.5 mph N/A   Clear
3:04 PM 62.6 °F - 48.2 °F 59% 29.38 in 10.0 mi SW 19.6 mph 25.3 mph N/A   Scattered Clouds
3:24 PM 62.6 °F - 48.2 °F 59% 29.38 in 10.0 mi SW 18.4 mph 29.9 mph N/A   Clear
3:44 PM 62.6 °F - 48.2 °F 59% 29.38 in 10.0 mi SW 19.6 mph 26.5 mph N/A   Clear
4:04 PM 62.6 °F - 48.2 °F 59% 29.39 in 10.0 mi SW 18.4 mph 27.6 mph N/A   Clear
4:25 PM 62.6 °F - 48.2 °F 59% 29.39 in 10.0 mi SW 18.4 mph 27.6 mph N/A   Clear
4:44 PM 60.8 °F - 48.2 °F 63% 29.40 in 10.0 mi SW 16.1 mph 26.5 mph N/A   Clear
5:04 PM 57.2 °F - 48.2 °F 72% 29.41 in 10.0 mi West 18.4 mph 26.5 mph N/A   Scattered Clouds
5:25 PM 57.2 °F - 48.2 °F 72% 29.43 in 10.0 mi West 18.4 mph 27.6 mph N/A   Overcast
5:44 PM 57.2 °F - 48.2 °F 72% 29.43 in 10.0 mi West 13.8 mph 20.7 mph N/A Thunderstorm Mostly Cloudy
6:04 PM 55.4 °F - 48.2 °F 77% 29.44 in 10.0 mi WSW 11.5 mph - N/A   Scattered Clouds
6:24 PM 55.4 °F - 48.2 °F 77% 29.45 in 10.0 mi WSW 11.5 mph - N/A   Scattered Clouds
6:44 PM 55.4 °F - 46.4 °F 72% 29.45 in 10.0 mi West 19.6 mph 29.9 mph N/A   Overcast
7:04 PM 53.6 °F - 46.4 °F 77% 29.46 in 10.0 mi West 16.1 mph 21.9 mph N/A   Mostly Cloudy
7:24 PM 53.6 °F - 46.4 °F 77% 29.47 in 10.0 mi West 16.1 mph 23.0 mph N/A   Mostly Cloudy
7:44 PM 53.6 °F - 44.6 °F 72% 29.47 in 10.0 mi West 21.9 mph 29.9 mph N/A   Mostly Cloudy
8:04 PM 51.8 °F - 44.6 °F 76% 29.48 in 10.0 mi West 23.0 mph 28.8 mph N/A   Scattered Clouds
8:24 PM 50.0 °F - 42.8 °F 76% 29.49 in 10.0 mi West 19.6 mph 32.2 mph N/A   Scattered Clouds
8:44 PM 44.6 °F 36.9 °F 39.2 °F 81% 29.52 in 10.0 mi West 18.4 mph 26.5 mph N/A   Overcast
9:04 PM 42.8 °F 36.2 °F 37.4 °F 81% 29.53 in 10.0 mi WNW 12.7 mph 21.9 mph N/A   Overcast
9:24 PM 41.0 °F 33.1 °F 39.2 °F 93% 29.54 in 10.0 mi West 15.0 mph 21.9 mph 0.01 in Rain Light Rain
9:44 PM 39.2 °F 29.8 °F 37.4 °F 93% 29.55 in 10.0 mi WNW 18.4 mph 26.5 mph 0.03 in Rain Light Rain
10:04 PM 37.4 °F 28.5 °F 35.6 °F 93% 29.57 in 10.0 mi WNW 15.0 mph 29.9 mph 0.01 in Rain Rain
10:24 PM 35.6 °F 26.6 °F 35.6 °F 100% 29.58 in 7.0 mi WNW 13.8 mph 21.9 mph 0.03 in Rain Light Rain
10:44 PM 35.6 °F 26.6 °F 35.6 °F 100% 29.59 in 5.0 mi WNW 13.8 mph 25.3 mph 0.04 in Rain Light Rain
11:04 PM 35.6 °F 25.5 °F 35.6 °F 100% 29.60 in 10.0 mi WNW 17.3 mph 23.0 mph N/A   Overcast
11:24 PM 37.4 °F 28.9 °F 35.6 °F 93% 29.61 in 3.0 mi WNW 13.8 mph 19.6 mph N/A Rain Light Rain
11:44 PM 35.6 °F 25.5 °F 35.6 °F 100% 29.62 in 7.0 mi WNW 17.3 mph 25.3 mph 0.01 in Rain Rain